Flag for Cuba Weather past 2 weeks in Santa Clara, Cuba

Now
70 °F

Mild.


Feels Like: 70 °F
Forecast: 68 / 84 °F
Wind: 3 mph from Northeast

Location: Cienfuegos - Las Villas

Current Time: Dec 29, 2014 at 6:53:10 AM

Latest Report: Dec 29, 2014 at 5:58 AM


Visibility: N/A

Pressure: 30.07 "Hg

Humidity: 94%

Dew point: 68 °F

Location of Santa ClaraLocation

Historic Weather in Santa Clara — Graph

°F

Santa Clara temperature yesterday

Maximum temperature yesterday: 86 °F (at 11:50 AM)
Minimum temperature yesterday: 70 °F (at 12:58 AM)
Average temperature yesterday: 76 °F

Past Weeks' High & Low Weather Summary

 TemperatureHumidityPressure
High90 °F (Dec 26, 1:50 PM)100% (Dec 14, 5:57 AM)30.18 "Hg (Dec 14, 5:57 AM)
Low54 °F (Dec 14, 5:57 AM)39% (Dec 14, 2:50 PM)29.86 "Hg (Dec 23, 3:50 PM)
Average73 °F79%30.05 "Hg
* Reported Dec 14 4:58 AM — Dec 29 4:58 AM, Santa Clara, Weather by CustomWeather, © 2014

Note: Actual official high and low records may vary slightly from our data, if they occured in-between our weather recording intervals... More about our weather records

Advertising

Santa Clara weather history for previous 24 hours

 ConditionsComfort  
Time TempWeatherWind HumidityBarometerVisibility
4:58 AM
Dec 29
70 °FMild.5 mph94%30.07 "HgN/A
3:58 AM70 °FMild.6 mph94%30.07 "HgN/A
2:58 AM70 °FMild.5 mph94%30.07 "HgN/A
1:58 AM72 °FMild.6 mph94%30.09 "HgN/A
12:58 AM73 °FMild.7 mph89%30.09 "HgN/A
11:58 PM
Dec 28
73 °FMild.9 mph89%30.09 "HgN/A
10:58 PM73 °FMild.9 mph94%30.12 "HgN/A
9:58 PM73 °FMild.8 mph89%30.12 "HgN/A
8:50 PM72 °FPassing clouds.7 mph94%30.09 "HgN/A
7:50 PM73 °FPassing clouds.6 mph89%30.09 "HgN/A
6:50 PM75 °FPassing clouds.6 mph83%30.07 "Hg6 mi
5:50 PM77 °FPassing clouds.5 mph79%30.07 "HgN/A
4:50 PM82 °FPassing clouds.7 mph62%30.04 "HgN/A
3:50 PM84 °FPassing clouds.8 mph55%30.04 "HgN/A
2:50 PM84 °FPassing clouds.9 mph58%30.04 "HgN/A
1:50 PM86 °FPassing clouds.9 mph52%30.04 "HgN/A
12:50 PM86 °FPassing clouds.3 mph49%30.07 "HgN/A
11:50 AM86 °FPassing clouds.3 mph52%30.09 "HgN/A
10:50 AM84 °FPassing clouds.7 mph58%30.12 "HgN/A
9:50 AM81 °FPassing clouds.10 mph66%30.15 "HgN/A
8:50 AM77 °FPassing clouds.8 mph79%30.15 "HgN/A
7:50 AM70 °FPassing clouds.6 mph94%30.12 "Hg6 mi
6:58 AM70 °FMild.7 mph94%30.12 "HgN/A
Weather by CustomWeather, © 2014

See weather overviewHow to use our weather pages